Tracking 19644 objects as of 24-Apr-2019
HD Live streaming from Space Station
objects crossing your sky now

SCOUT B DEB

Track SCOUT B DEB now!
10-day predictions


NORAD ID: 29174
Int'l Code: 1965-063Y
Perigee: 1,144.4 km
Apogee: 2,285.1 km
Inclination: 69.3 °
Period: 120.6 minutes
Semi major axis: 8085 km
RCS: 0.0067 m2 (small)
Launch date: August 10, 1965
Source: United States (US)
Launch site: WALLOPS ISLAND (WLPIS)

Note: This is SATELLITE DEBRIS
aabbcc
Your satellite tracking list
Your tracking list is empty




NASA's NSSDC Master Catalog

Two Line Element Set (TLE):
1 29174U 65063Y   16097.57823098 -.00000167 +00000-0 -88123-3 0  9999
2 29174 069.2591 159.4560 0705374 017.0962 047.6527 11.94057711485259
Source of the keplerian elements: AFSPC